Year,Month,Day,Hour,Minute,Value (Times are PST for temperature in C)
2012,01,15,00,00,-0.30
2012,01,15,00,01,-0.30
2012,01,15,00,02,-0.30
2012,01,15,00,03,-0.40
2012,01,15,00,04,-0.40
2012,01,15,00,05,-0.40
2012,01,15,00,06,-0.40
2012,01,15,00,07,-0.50
2012,01,15,00,08,-0.50
2012,01,15,00,09,-0.50
2012,01,15,00,10,-0.50
2012,01,15,00,11,-0.50
2012,01,15,00,12,-0.50
2012,01,15,00,13,-0.60
2012,01,15,00,14,-0.60
2012,01,15,00,15,-0.60
2012,01,15,00,16,-0.60
2012,01,15,00,17,-0.60
2012,01,15,00,18,-0.60
2012,01,15,00,19,-0.60
2012,01,15,00,20,-0.60
2012,01,15,00,21,-0.60
2012,01,15,00,22,-0.60
2012,01,15,00,23,-0.60
2012,01,15,00,24,-0.70
2012,01,15,00,25,-0.70
2012,01,15,00,26,-0.70
2012,01,15,00,27,-0.70
2012,01,15,00,28,-0.70
2012,01,15,00,29,-0.70
2012,01,15,00,30,-0.70
2012,01,15,00,31,-0.70
2012,01,15,00,32,-0.70
2012,01,15,00,33,-0.70
2012,01,15,00,34,-0.80
2012,01,15,00,35,-0.80
2012,01,15,00,36,-0.80
2012,01,15,00,37,-0.80
2012,01,15,00,38,-0.80
2012,01,15,00,39,-0.80
2012,01,15,00,40,-0.80
2012,01,15,00,41,-0.80
2012,01,15,00,42,-0.80
2012,01,15,00,43,-0.70
2012,01,15,00,44,-0.70
2012,01,15,00,45,-0.70
2012,01,15,00,46,-0.70
2012,01,15,00,47,-0.80
2012,01,15,00,48,-0.80
2012,01,15,00,49,-0.80
2012,01,15,00,50,-0.80
2012,01,15,00,51,-0.80
2012,01,15,00,52,-0.80
2012,01,15,00,53,-0.80
2012,01,15,00,54,-0.80
2012,01,15,00,55,-0.80
2012,01,15,00,56,-0.80
2012,01,15,00,57,-0.80
2012,01,15,00,58,-0.90
2012,01,15,00,59,-0.90
2012,01,15,01,00,-0.90
2012,01,15,01,01,-0.90
2012,01,15,01,02,-0.90
2012,01,15,01,03,-0.90
2012,01,15,01,04,-0.90
2012,01,15,01,05,-0.90
2012,01,15,01,06,-0.90
2012,01,15,01,07,-0.90
2012,01,15,01,08,-0.90
2012,01,15,01,09,-0.90
2012,01,15,01,10,-0.90
2012,01,15,01,11,-0.90
2012,01,15,01,12,-1.00
2012,01,15,01,13,-1.00
2012,01,15,01,14,-1.00
2012,01,15,01,15,-1.00
2012,01,15,01,16,-1.00
2012,01,15,01,17,-1.00
2012,01,15,01,18,-1.00
2012,01,15,01,19,-1.00
2012,01,15,01,20,-1.00
2012,01,15,01,21,-1.00
2012,01,15,01,22,-1.00
2012,01,15,01,23,-1.00
2012,01,15,01,24,-1.00
2012,01,15,01,25,-1.00
2012,01,15,01,26,-1.00
2012,01,15,01,27,-1.00
2012,01,15,01,28,-1.00
2012,01,15,01,29,-1.10
2012,01,15,01,30,-1.10
2012,01,15,01,31,-1.10
2012,01,15,01,32,-1.10
2012,01,15,01,33,-1.10
2012,01,15,01,34,-1.10
2012,01,15,01,35,-1.10
2012,01,15,01,36,-1.10
2012,01,15,01,37,-1.10
2012,01,15,01,38,-1.10
2012,01,15,01,39,-1.10
2012,01,15,01,40,-1.10
2012,01,15,01,41,-1.20
2012,01,15,01,42,-1.20
2012,01,15,01,43,-1.20
2012,01,15,01,44,-1.20
2012,01,15,01,45,-1.20
2012,01,15,01,46,-1.20
2012,01,15,01,47,-1.20
2012,01,15,01,48,-1.20
2012,01,15,01,49,-1.20
2012,01,15,01,50,-1.20
2012,01,15,01,51,-1.20
2012,01,15,01,52,-1.20
2012,01,15,01,53,-1.20
2012,01,15,01,54,-1.20
2012,01,15,01,55,-1.20
2012,01,15,01,56,-1.20
2012,01,15,01,57,-1.20
2012,01,15,01,58,-1.20
2012,01,15,01,59,-1.20
2012,01,15,02,00,-1.20
2012,01,15,02,01,-1.20
2012,01,15,02,02,-1.20
2012,01,15,02,03,-1.20
2012,01,15,02,04,-1.20
2012,01,15,02,05,-1.20
2012,01,15,02,06,-1.20
2012,01,15,02,07,-1.20
2012,01,15,02,08,-1.20
2012,01,15,02,09,-1.20
2012,01,15,02,10,-1.20
2012,01,15,02,11,-1.20
2012,01,15,02,12,-1.20
2012,01,15,02,13,-1.20
2012,01,15,02,14,-1.20
2012,01,15,02,15,-1.20
2012,01,15,02,16,-1.30
2012,01,15,02,17,-1.30
2012,01,15,02,18,-1.30
2012,01,15,02,19,-1.30
2012,01,15,02,20,-1.30
2012,01,15,02,21,-1.30
2012,01,15,02,22,-1.30
2012,01,15,02,23,-1.30
2012,01,15,02,24,-1.30
2012,01,15,02,25,-1.40
2012,01,15,02,26,-1.30
2012,01,15,02,27,-1.40
2012,01,15,02,28,-1.30
2012,01,15,02,29,-1.30
2012,01,15,02,30,-1.30
2012,01,15,02,31,-1.30
2012,01,15,02,32,-1.30
2012,01,15,02,33,-1.30
2012,01,15,02,34,-1.30
2012,01,15,02,35,-1.30
2012,01,15,02,36,-1.30
2012,01,15,02,37,-1.30
2012,01,15,02,38,-1.30
2012,01,15,02,39,-1.30
2012,01,15,02,40,-1.30
2012,01,15,02,41,-1.30
2012,01,15,02,42,-1.30
2012,01,15,02,43,-1.30
2012,01,15,02,44,-1.30
2012,01,15,02,45,-1.30
2012,01,15,02,46,-1.30
2012,01,15,02,47,-1.40
2012,01,15,02,48,-1.40
2012,01,15,02,49,-1.40
2012,01,15,02,50,-1.40
2012,01,15,02,51,-1.40
2012,01,15,02,52,-1.40
2012,01,15,02,53,-1.40
2012,01,15,02,54,-1.40
2012,01,15,02,55,-1.40
2012,01,15,02,56,-1.40
2012,01,15,02,57,-1.40
2012,01,15,02,58,-1.40
2012,01,15,02,59,-1.40
2012,01,15,03,00,-1.40
2012,01,15,03,01,-1.40
2012,01,15,03,02,-1.40
2012,01,15,03,03,-1.40
2012,01,15,03,04,-1.40
2012,01,15,03,05,-1.40
2012,01,15,03,06,-1.40
2012,01,15,03,07,-1.40
2012,01,15,03,08,-1.40
2012,01,15,03,09,-1.40
2012,01,15,03,10,-1.40
2012,01,15,03,11,-1.40
2012,01,15,03,12,-1.40
2012,01,15,03,13,-1.40
2012,01,15,03,14,-1.40
2012,01,15,03,15,-1.40
2012,01,15,03,16,-1.40
2012,01,15,03,17,-1.40
2012,01,15,03,18,-1.40
2012,01,15,03,19,-1.40
2012,01,15,03,20,-1.40
2012,01,15,03,21,-1.40
2012,01,15,03,22,-1.40
2012,01,15,03,23,-1.40
2012,01,15,03,24,-1.40
2012,01,15,03,25,-1.50
2012,01,15,03,26,-1.50
2012,01,15,03,27,-1.50
2012,01,15,03,28,-1.50
2012,01,15,03,29,-1.60
2012,01,15,03,30,-1.60
2012,01,15,03,31,-1.60
2012,01,15,03,32,-1.60
2012,01,15,03,33,-1.60
2012,01,15,03,34,-1.60
2012,01,15,03,35,-1.60
2012,01,15,03,36,-1.70
2012,01,15,03,37,-1.60
2012,01,15,03,38,-1.60
2012,01,15,03,39,-1.60
2012,01,15,03,40,-1.60
2012,01,15,03,41,-1.60
2012,01,15,03,42,-1.60
2012,01,15,03,43,-1.70
2012,01,15,03,44,-1.70
2012,01,15,03,45,-1.70
2012,01,15,03,46,-1.70
2012,01,15,03,47,-1.70
2012,01,15,03,48,-1.70
2012,01,15,03,49,-1.70
2012,01,15,03,50,-1.70
2012,01,15,03,51,-1.70
2012,01,15,03,52,-1.70
2012,01,15,03,53,-1.70
2012,01,15,03,54,-1.70
2012,01,15,03,55,-1.80
2012,01,15,03,56,-1.80
2012,01,15,03,57,-1.80
2012,01,15,03,58,-1.80
2012,01,15,03,59,-1.80
2012,01,15,04,00,-1.80
2012,01,15,04,01,-1.70
2012,01,15,04,02,-1.70
2012,01,15,04,03,-1.70
2012,01,15,04,04,-1.70
2012,01,15,04,05,-1.70
2012,01,15,04,06,-1.60
2012,01,15,04,07,-1.60
2012,01,15,04,08,-1.60
2012,01,15,04,09,-1.60
2012,01,15,04,10,-1.60
2012,01,15,04,11,-1.60
2012,01,15,04,12,-1.60
2012,01,15,04,13,-1.60
2012,01,15,04,14,-1.60
2012,01,15,04,15,-1.60
2012,01,15,04,16,-1.60
2012,01,15,04,17,-1.70
2012,01,15,04,18,-1.70
2012,01,15,04,19,-1.70
2012,01,15,04,20,-1.70
2012,01,15,04,21,-1.70
2012,01,15,04,22,-1.80
2012,01,15,04,23,-1.80
2012,01,15,04,24,-1.80
2012,01,15,04,25,-1.80
2012,01,15,04,26,-1.80
2012,01,15,04,27,-1.80
2012,01,15,04,28,-1.90
2012,01,15,04,29,-1.90
2012,01,15,04,30,-1.90
2012,01,15,04,31,-2.00
2012,01,15,04,32,-2.00
2012,01,15,04,33,-2.00
2012,01,15,04,34,-2.10
2012,01,15,04,35,-2.10
2012,01,15,04,36,-2.10
2012,01,15,04,37,-2.10
2012,01,15,04,38,-2.10
2012,01,15,04,39,-2.10
2012,01,15,04,40,-2.10
2012,01,15,04,41,-2.10
2012,01,15,04,42,-2.00
2012,01,15,04,43,-2.00
2012,01,15,04,44,-2.00
2012,01,15,04,45,-1.90
2012,01,15,04,46,-1.90
2012,01,15,04,47,-1.80
2012,01,15,04,48,-1.80
2012,01,15,04,49,-1.80
2012,01,15,04,50,-1.70
2012,01,15,04,51,-1.70
2012,01,15,04,52,-1.70
2012,01,15,04,53,-1.70
2012,01,15,04,54,-1.70
2012,01,15,04,55,-1.60
2012,01,15,04,56,-1.60
2012,01,15,04,57,-1.60
2012,01,15,04,58,-1.60
2012,01,15,04,59,-1.50
2012,01,15,05,00,-1.50
2012,01,15,05,01,-1.50
2012,01,15,05,02,-1.50
2012,01,15,05,03,-1.40
2012,01,15,05,04,-1.40
2012,01,15,05,05,-1.40
2012,01,15,05,06,-1.40
2012,01,15,05,07,-1.40
2012,01,15,05,08,-1.40
2012,01,15,05,09,-1.40
2012,01,15,05,10,-1.40
2012,01,15,05,11,-1.40
2012,01,15,05,12,-1.40
2012,01,15,05,13,-1.40
2012,01,15,05,14,-1.40
2012,01,15,05,15,-1.40
2012,01,15,05,16,-1.40
2012,01,15,05,17,-1.40
2012,01,15,05,18,-1.40
2012,01,15,05,19,-1.40
2012,01,15,05,20,-1.40
2012,01,15,05,21,-1.50
2012,01,15,05,22,-1.50
2012,01,15,05,23,-1.50
2012,01,15,05,24,-1.50
2012,01,15,05,25,-1.40
2012,01,15,05,26,-1.40
2012,01,15,05,27,-1.40
2012,01,15,05,28,-1.40
2012,01,15,05,29,-1.40
2012,01,15,05,30,-1.40
2012,01,15,05,31,-1.40
2012,01,15,05,32,-1.40
2012,01,15,05,33,-1.40
2012,01,15,05,34,-1.40
2012,01,15,05,35,-1.40
2012,01,15,05,36,-1.30
2012,01,15,05,37,-1.30
2012,01,15,05,38,-1.30
2012,01,15,05,39,-1.30
2012,01,15,05,40,-1.30
2012,01,15,05,41,-1.30
2012,01,15,05,42,-1.30
2012,01,15,05,43,-1.30
2012,01,15,05,44,-1.30
2012,01,15,05,45,-1.30
2012,01,15,05,46,-1.30
2012,01,15,05,47,-1.30
2012,01,15,05,48,-1.30
2012,01,15,05,49,-1.30
2012,01,15,05,50,-1.30
2012,01,15,05,51,-1.30
2012,01,15,05,52,-1.30
2012,01,15,05,53,-1.30
2012,01,15,05,54,-1.30
2012,01,15,05,55,-1.30
2012,01,15,05,56,-1.30
2012,01,15,05,57,-1.30
2012,01,15,05,58,-1.20
2012,01,15,05,59,-1.20
2012,01,15,06,00,-1.20
2012,01,15,06,01,-1.20
2012,01,15,06,02,-1.20
2012,01,15,06,03,-1.20
2012,01,15,06,04,-1.20
2012,01,15,06,05,-1.20
2012,01,15,06,06,-1.20
2012,01,15,06,07,-1.20
2012,01,15,06,08,-1.20
2012,01,15,06,09,-1.20
2012,01,15,06,10,-1.20
2012,01,15,06,11,-1.20
2012,01,15,06,12,-1.20
2012,01,15,06,13,-1.20
2012,01,15,06,14,-1.20
2012,01,15,06,15,-1.10
2012,01,15,06,16,-1.20
2012,01,15,06,17,-1.20
2012,01,15,06,18,-1.20
2012,01,15,06,19,-1.20
2012,01,15,06,20,-1.20
2012,01,15,06,21,-1.20
2012,01,15,06,22,-1.20
2012,01,15,06,23,-1.20
2012,01,15,06,24,-1.20
2012,01,15,06,25,-1.10
2012,01,15,06,26,-1.20
2012,01,15,06,27,-1.10
2012,01,15,06,28,-1.10
2012,01,15,06,29,-1.10
2012,01,15,06,30,-1.10
2012,01,15,06,31,-1.10
2012,01,15,06,32,-1.10
2012,01,15,06,33,-1.10
2012,01,15,06,34,-1.10
2012,01,15,06,35,-1.10
2012,01,15,06,36,-1.20
2012,01,15,06,37,-1.20
2012,01,15,06,38,-1.20
2012,01,15,06,39,-1.20
2012,01,15,06,40,-1.20
2012,01,15,06,41,-1.20
2012,01,15,06,42,-1.20
2012,01,15,06,43,-1.20
2012,01,15,06,44,-1.30
2012,01,15,06,45,-1.30
2012,01,15,06,46,-1.30
2012,01,15,06,47,-1.30
2012,01,15,06,48,-1.30
2012,01,15,06,49,-1.30
2012,01,15,06,50,-1.30
2012,01,15,06,51,-1.40
2012,01,15,06,52,-1.40
2012,01,15,06,53,-1.40
2012,01,15,06,54,-1.40
2012,01,15,06,55,-1.50
2012,01,15,06,56,-1.50
2012,01,15,06,57,-1.60
2012,01,15,06,58,-1.60
2012,01,15,06,59,-1.70
2012,01,15,07,00,-1.70
2012,01,15,07,01,-1.80
2012,01,15,07,02,-1.80
2012,01,15,07,03,-1.90
2012,01,15,07,04,-1.90
2012,01,15,07,05,-1.90
2012,01,15,07,06,-1.90
2012,01,15,07,07,-1.90
2012,01,15,07,08,-2.00
2012,01,15,07,09,-2.00
2012,01,15,07,10,-2.00
2012,01,15,07,11,-2.10
2012,01,15,07,12,-2.10
2012,01,15,07,13,-2.10
2012,01,15,07,14,-2.10
2012,01,15,07,15,-2.10
2012,01,15,07,16,-2.10
2012,01,15,07,17,-2.10
2012,01,15,07,18,-2.10
2012,01,15,07,19,-2.10
2012,01,15,07,20,-2.10
2012,01,15,07,21,-2.10
2012,01,15,07,22,-2.10
2012,01,15,07,23,-2.10
2012,01,15,07,24,-2.10
2012,01,15,07,25,-2.10
2012,01,15,07,26,-2.10
2012,01,15,07,27,-2.10
2012,01,15,07,28,-2.10
2012,01,15,07,29,-2.10
2012,01,15,07,30,-2.20
2012,01,15,07,31,-2.20
2012,01,15,07,32,-2.20
2012,01,15,07,33,-2.20
2012,01,15,07,34,-2.20
2012,01,15,07,35,-2.20
2012,01,15,07,36,-2.20
2012,01,15,07,37,-2.20
2012,01,15,07,38,-2.20
2012,01,15,07,39,-2.20
2012,01,15,07,40,-2.20
2012,01,15,07,41,-2.20
2012,01,15,07,42,-2.20
2012,01,15,07,43,-2.20
2012,01,15,07,44,-2.30
2012,01,15,07,45,-2.30
2012,01,15,07,46,-2.30
2012,01,15,07,47,-2.30
2012,01,15,07,48,-2.30
2012,01,15,07,49,-2.30
2012,01,15,07,50,-2.40
2012,01,15,07,51,-2.40
2012,01,15,07,52,-2.40
2012,01,15,07,53,-2.40
2012,01,15,07,54,-2.40
2012,01,15,07,55,-2.40
2012,01,15,07,56,-2.40
2012,01,15,07,57,-2.40
2012,01,15,07,58,-2.50
2012,01,15,07,59,-2.50
2012,01,15,08,00,-2.50
2012,01,15,08,01,-2.60
2012,01,15,08,02,-2.60
2012,01,15,08,03,-2.70
2012,01,15,08,04,-2.70
2012,01,15,08,05,-2.70
2012,01,15,08,06,-2.80
2012,01,15,08,07,-2.80
2012,01,15,08,08,-2.80
2012,01,15,08,09,-2.80
2012,01,15,08,10,-2.70
2012,01,15,08,11,-2.70
2012,01,15,08,12,-2.70
2012,01,15,08,13,-2.60
2012,01,15,08,14,-2.60
2012,01,15,08,15,-2.50
2012,01,15,08,16,-2.50
2012,01,15,08,17,-2.50
2012,01,15,08,18,-2.50
2012,01,15,08,19,-2.40
2012,01,15,08,20,-2.40
2012,01,15,08,21,-2.30
2012,01,15,08,22,-2.30
2012,01,15,08,23,-2.30
2012,01,15,08,24,-2.30
2012,01,15,08,25,-2.30
2012,01,15,08,26,-2.30
2012,01,15,08,27,-2.30
2012,01,15,08,28,-2.30
2012,01,15,08,29,-2.30
2012,01,15,08,30,-2.30
2012,01,15,08,31,-2.30
2012,01,15,08,32,-2.30
2012,01,15,08,33,-2.30
2012,01,15,08,34,-2.30
2012,01,15,08,35,-2.30
2012,01,15,08,36,-2.30
2012,01,15,08,37,-2.30
2012,01,15,08,38,-2.30
2012,01,15,08,39,-2.30
2012,01,15,08,40,-2.30
2012,01,15,08,41,-2.30
2012,01,15,08,42,-2.30
2012,01,15,08,43,-2.30
2012,01,15,08,44,-2.30
2012,01,15,08,45,-2.30
2012,01,15,08,46,-2.30
2012,01,15,08,47,-2.30
2012,01,15,08,48,-2.30
2012,01,15,08,49,-2.30
2012,01,15,08,50,-2.30
2012,01,15,08,51,-2.30
2012,01,15,08,52,-2.30
2012,01,15,08,53,-2.30
2012,01,15,08,54,-2.20
2012,01,15,08,55,-2.20
2012,01,15,08,56,-2.20
2012,01,15,08,57,-2.10
2012,01,15,08,58,-2.10
2012,01,15,08,59,-2.10
2012,01,15,09,00,-2.00
2012,01,15,09,01,-2.00
2012,01,15,09,02,-2.00
2012,01,15,09,03,-1.90
2012,01,15,09,04,-1.90
2012,01,15,09,05,-1.90
2012,01,15,09,06,-1.90
2012,01,15,09,07,-1.80
2012,01,15,09,08,-1.80
2012,01,15,09,09,-1.80
2012,01,15,09,10,-1.80
2012,01,15,09,11,-1.80
2012,01,15,09,12,-1.80
2012,01,15,09,13,-1.80
2012,01,15,09,14,-1.80
2012,01,15,09,15,-1.80
2012,01,15,09,16,-1.80
2012,01,15,09,17,-1.90
2012,01,15,09,18,-1.90
2012,01,15,09,19,-1.90
2012,01,15,09,20,-1.90
2012,01,15,09,21,-1.80
2012,01,15,09,22,-1.80
2012,01,15,09,23,-1.80
2012,01,15,09,24,-1.70
2012,01,15,09,25,-1.70
2012,01,15,09,26,-1.70
2012,01,15,09,27,-1.80
2012,01,15,09,28,-1.80
2012,01,15,09,29,-1.80
2012,01,15,09,30,-1.80
2012,01,15,09,31,-1.80
2012,01,15,09,32,-1.80
2012,01,15,09,33,-1.70
2012,01,15,09,34,-1.60
2012,01,15,09,35,-1.60
2012,01,15,09,36,-1.50
2012,01,15,09,37,-1.40
2012,01,15,09,38,-1.30
2012,01,15,09,39,-1.30
2012,01,15,09,40,-1.20
2012,01,15,09,41,-1.10
2012,01,15,09,42,-1.00
2012,01,15,09,43,-1.00
2012,01,15,09,44,-0.90
2012,01,15,09,45,-0.80
2012,01,15,09,46,-0.80
2012,01,15,09,47,-0.70
2012,01,15,09,48,-0.70
2012,01,15,09,49,-0.60
2012,01,15,09,50,-0.60
2012,01,15,09,51,-0.50
2012,01,15,09,52,-0.50
2012,01,15,09,53,-0.40
2012,01,15,09,54,-0.40
2012,01,15,09,55,-0.30
2012,01,15,09,56,-0.30
2012,01,15,09,57,-0.30
2012,01,15,09,58,-0.30
2012,01,15,09,59,-0.30
2012,01,15,10,00,-0.20
2012,01,15,10,01,-0.20
2012,01,15,10,02,-0.20
2012,01,15,10,03,-0.20
2012,01,15,10,04,-0.20
2012,01,15,10,05,-0.10
2012,01,15,10,06,-0.10
2012,01,15,10,07,-0.10
2012,01,15,10,08,-0.10
2012,01,15,10,09,-0.10
2012,01,15,10,10,0.00
2012,01,15,10,11,0.00
2012,01,15,10,12,0.10
2012,01,15,10,13,0.10
2012,01,15,10,14,0.20
2012,01,15,10,15,0.20
2012,01,15,10,16,0.20
2012,01,15,10,17,0.30
2012,01,15,10,18,0.40
2012,01,15,10,19,0.40
2012,01,15,10,20,0.40
2012,01,15,10,21,0.40
2012,01,15,10,22,0.50
2012,01,15,10,23,0.50
2012,01,15,10,24,0.50
2012,01,15,10,25,0.60
2012,01,15,10,26,0.60
2012,01,15,10,27,0.60
2012,01,15,10,28,0.60
2012,01,15,10,29,0.50
2012,01,15,10,30,0.50
2012,01,15,10,31,0.60
2012,01,15,10,32,0.60
2012,01,15,10,33,0.60
2012,01,15,10,34,0.70
2012,01,15,10,35,0.80
2012,01,15,10,36,0.80
2012,01,15,10,37,0.90
2012,01,15,10,38,1.00
2012,01,15,10,39,1.00
2012,01,15,10,40,1.10
2012,01,15,10,41,1.10
2012,01,15,10,42,1.10
2012,01,15,10,43,1.10
2012,01,15,10,44,1.20
2012,01,15,10,45,1.30
2012,01,15,10,46,1.40
2012,01,15,10,47,1.40
2012,01,15,10,48,1.40
2012,01,15,10,49,1.40
2012,01,15,10,50,1.40
2012,01,15,10,51,1.40
2012,01,15,10,52,1.40
2012,01,15,10,53,1.40
2012,01,15,10,54,1.40
2012,01,15,10,55,1.40
2012,01,15,10,56,1.50
2012,01,15,10,57,1.50
2012,01,15,10,58,1.60
2012,01,15,10,59,1.50
2012,01,15,11,00,1.50
2012,01,15,11,01,1.40
2012,01,15,11,02,1.40
2012,01,15,11,03,1.30
2012,01,15,11,04,1.30
2012,01,15,11,05,1.30
2012,01,15,11,06,1.20
2012,01,15,11,07,1.20
2012,01,15,11,08,1.20
2012,01,15,11,09,1.20
2012,01,15,11,10,1.10
2012,01,15,11,11,1.10
2012,01,15,11,12,1.10
2012,01,15,11,13,1.10
2012,01,15,11,14,1.10
2012,01,15,11,15,1.10
2012,01,15,11,16,1.10
2012,01,15,11,17,1.10
2012,01,15,11,18,1.20
2012,01,15,11,19,1.20
2012,01,15,11,20,1.30
2012,01,15,11,21,1.40
2012,01,15,11,22,1.50
2012,01,15,11,23,1.60
2012,01,15,11,24,1.70
2012,01,15,11,25,1.80
2012,01,15,11,26,1.80
2012,01,15,11,27,1.90
2012,01,15,11,28,2.00
2012,01,15,11,29,2.10
2012,01,15,11,30,2.20
2012,01,15,11,31,2.20
2012,01,15,11,32,2.30
2012,01,15,11,33,2.40
2012,01,15,11,34,2.40
2012,01,15,11,35,2.40
2012,01,15,11,36,2.50
2012,01,15,11,37,2.50
2012,01,15,11,38,2.60
2012,01,15,11,39,2.60
2012,01,15,11,40,2.60
2012,01,15,11,41,2.60
2012,01,15,11,42,2.70
2012,01,15,11,43,2.70
2012,01,15,11,44,2.80
2012,01,15,11,45,2.80
2012,01,15,11,46,2.70
2012,01,15,11,47,2.70
2012,01,15,11,48,2.70
2012,01,15,11,49,2.70
2012,01,15,11,50,2.70
2012,01,15,11,51,2.80
2012,01,15,11,52,2.80
2012,01,15,11,53,2.80
2012,01,15,11,54,2.80
2012,01,15,11,55,2.70
2012,01,15,11,56,2.70
2012,01,15,11,57,2.60
2012,01,15,11,58,2.60
2012,01,15,11,59,2.50
2012,01,15,12,00,2.50
2012,01,15,12,01,2.50
2012,01,15,12,02,2.40
2012,01,15,12,03,2.30
2012,01,15,12,04,2.30
2012,01,15,12,05,2.30
2012,01,15,12,06,2.20
2012,01,15,12,07,2.20
2012,01,15,12,08,2.20
2012,01,15,12,09,2.10
2012,01,15,12,10,2.00
2012,01,15,12,11,1.90
2012,01,15,12,12,1.90
2012,01,15,12,13,1.80
2012,01,15,12,14,1.80
2012,01,15,12,15,1.80
2012,01,15,12,16,1.70
2012,01,15,12,17,1.70
2012,01,15,12,18,1.70
2012,01,15,12,19,1.70
2012,01,15,12,20,1.70
2012,01,15,12,21,1.70
2012,01,15,12,22,1.70
2012,01,15,12,23,1.70
2012,01,15,12,24,1.60
2012,01,15,12,25,1.60
2012,01,15,12,26,1.60
2012,01,15,12,27,1.60
2012,01,15,12,28,1.60
2012,01,15,12,29,1.70
2012,01,15,12,30,1.70
2012,01,15,12,31,1.60
2012,01,15,12,32,1.60
2012,01,15,12,33,1.60
2012,01,15,12,34,1.70
2012,01,15,12,35,1.70
2012,01,15,12,36,1.60
2012,01,15,12,37,1.70
2012,01,15,12,38,1.70
2012,01,15,12,39,1.70
2012,01,15,12,40,1.70
2012,01,15,12,41,1.80
2012,01,15,12,42,1.80
2012,01,15,12,43,1.80
2012,01,15,12,44,1.80
2012,01,15,12,45,1.80
2012,01,15,12,46,1.80
2012,01,15,12,47,1.80
2012,01,15,12,48,1.80
2012,01,15,12,49,1.80
2012,01,15,12,50,1.80
2012,01,15,12,51,1.70
2012,01,15,12,52,1.70
2012,01,15,12,53,1.70
2012,01,15,12,54,1.60
2012,01,15,12,55,1.60
2012,01,15,12,56,1.60
2012,01,15,12,57,1.60
2012,01,15,12,58,1.60
2012,01,15,12,59,1.60
2012,01,15,13,00,1.60
2012,01,15,13,01,1.60
2012,01,15,13,02,1.50
2012,01,15,13,03,1.50
2012,01,15,13,04,1.50
2012,01,15,13,05,1.50
2012,01,15,13,06,1.50
2012,01,15,13,07,1.50
2012,01,15,13,08,1.50
2012,01,15,13,09,1.50
2012,01,15,13,10,1.50
2012,01,15,13,11,1.50
2012,01,15,13,12,1.50
2012,01,15,13,13,1.50
2012,01,15,13,14,1.40
2012,01,15,13,15,1.40
2012,01,15,13,16,1.40
2012,01,15,13,17,1.40
2012,01,15,13,18,1.40
2012,01,15,13,19,1.40
2012,01,15,13,20,1.40
2012,01,15,13,21,1.40
2012,01,15,13,22,1.40
2012,01,15,13,23,1.40
2012,01,15,13,24,1.40
2012,01,15,13,25,1.40
2012,01,15,13,26,1.40
2012,01,15,13,27,1.40
2012,01,15,13,28,1.40
2012,01,15,13,29,1.50
2012,01,15,13,30,1.50
2012,01,15,13,31,1.50
2012,01,15,13,32,1.50
2012,01,15,13,33,1.60
2012,01,15,13,34,1.60
2012,01,15,13,35,1.60
2012,01,15,13,36,1.60
2012,01,15,13,37,1.70
2012,01,15,13,38,1.70
2012,01,15,13,39,1.70
2012,01,15,13,40,1.70
2012,01,15,13,41,1.70
2012,01,15,13,42,1.80
2012,01,15,13,43,1.80
2012,01,15,13,44,1.90
2012,01,15,13,45,2.00
2012,01,15,13,46,2.10
2012,01,15,13,47,2.10
2012,01,15,13,48,2.20
2012,01,15,13,49,2.20
2012,01,15,13,50,2.20
2012,01,15,13,51,2.20
2012,01,15,13,52,2.10
2012,01,15,13,53,2.00
2012,01,15,13,54,2.00
2012,01,15,13,55,1.90
2012,01,15,13,56,1.90
2012,01,15,13,57,1.80
2012,01,15,13,58,1.80
2012,01,15,13,59,1.80
2012,01,15,14,00,1.80
2012,01,15,14,01,1.80
2012,01,15,14,02,1.80
2012,01,15,14,03,1.80
2012,01,15,14,04,1.90
2012,01,15,14,05,2.00
2012,01,15,14,06,2.00
2012,01,15,14,07,2.10
2012,01,15,14,08,2.10
2012,01,15,14,09,2.20
2012,01,15,14,10,2.30
2012,01,15,14,11,2.40
2012,01,15,14,12,2.50
2012,01,15,14,13,2.60
2012,01,15,14,14,2.70
2012,01,15,14,15,2.70
2012,01,15,14,16,2.70
2012,01,15,14,17,2.70
2012,01,15,14,18,2.70
2012,01,15,14,19,2.70
2012,01,15,14,20,2.80
2012,01,15,14,21,2.80
2012,01,15,14,22,2.90
2012,01,15,14,23,3.00
2012,01,15,14,24,3.00
2012,01,15,14,25,3.10
2012,01,15,14,26,3.20
2012,01,15,14,27,3.20
2012,01,15,14,28,3.10
2012,01,15,14,29,3.00
2012,01,15,14,30,2.90
2012,01,15,14,31,2.80
2012,01,15,14,32,2.70
2012,01,15,14,33,2.60
2012,01,15,14,34,2.50
2012,01,15,14,35,2.50
2012,01,15,14,36,2.50
2012,01,15,14,37,2.50
2012,01,15,14,38,2.50
2012,01,15,14,39,2.40
2012,01,15,14,40,2.30
2012,01,15,14,41,2.30
2012,01,15,14,42,2.20
2012,01,15,14,43,2.20
2012,01,15,14,44,2.20
2012,01,15,14,45,2.20
2012,01,15,14,46,2.20
2012,01,15,14,47,2.20
2012,01,15,14,48,2.20
2012,01,15,14,49,2.10
2012,01,15,14,50,2.00
2012,01,15,14,51,2.00
2012,01,15,14,52,1.90
2012,01,15,14,53,1.90
2012,01,15,14,54,1.80
2012,01,15,14,55,1.80
2012,01,15,14,56,1.80
2012,01,15,14,57,1.80
2012,01,15,14,58,1.70
2012,01,15,14,59,1.70
2012,01,15,15,00,1.70
2012,01,15,15,01,1.70
2012,01,15,15,02,1.70
2012,01,15,15,03,1.70
2012,01,15,15,04,1.70
2012,01,15,15,05,1.70
2012,01,15,15,06,1.70
2012,01,15,15,07,1.70
2012,01,15,15,08,1.70
2012,01,15,15,09,1.70
2012,01,15,15,10,1.70
2012,01,15,15,11,1.70
2012,01,15,15,12,1.70
2012,01,15,15,13,1.70
2012,01,15,15,14,1.70
2012,01,15,15,15,1.70
2012,01,15,15,16,1.70
2012,01,15,15,17,1.70
2012,01,15,15,18,1.70
2012,01,15,15,19,1.70
2012,01,15,15,20,1.70
2012,01,15,15,21,1.70
2012,01,15,15,22,1.70
2012,01,15,15,23,1.70
2012,01,15,15,24,1.70
2012,01,15,15,25,1.70
2012,01,15,15,26,1.70
2012,01,15,15,27,1.70
2012,01,15,15,28,1.70
2012,01,15,15,29,1.70
2012,01,15,15,30,1.70
2012,01,15,15,31,1.70
2012,01,15,15,32,1.60
2012,01,15,15,33,1.60
2012,01,15,15,34,1.60
2012,01,15,15,35,1.60
2012,01,15,15,36,1.60
2012,01,15,15,37,1.50
2012,01,15,15,38,1.50
2012,01,15,15,39,1.50
2012,01,15,15,40,1.50
2012,01,15,15,41,1.50
2012,01,15,15,42,1.40
2012,01,15,15,43,1.40
2012,01,15,15,44,1.40
2012,01,15,15,45,1.40
2012,01,15,15,46,1.40
2012,01,15,15,47,1.40
2012,01,15,15,48,1.40
2012,01,15,15,49,1.40
2012,01,15,15,50,1.40
2012,01,15,15,51,1.40
2012,01,15,15,52,1.40
2012,01,15,15,53,1.40
2012,01,15,15,54,1.40
2012,01,15,15,55,1.30
2012,01,15,15,56,1.30
2012,01,15,15,57,1.30
2012,01,15,15,58,1.30
2012,01,15,15,59,1.30
2012,01,15,16,00,1.30
2012,01,15,16,01,1.30
2012,01,15,16,02,1.30
2012,01,15,16,03,1.20
2012,01,15,16,04,1.20
2012,01,15,16,05,1.20
2012,01,15,16,06,1.20
2012,01,15,16,07,1.20
2012,01,15,16,08,1.20
2012,01,15,16,09,1.20
2012,01,15,16,10,1.20
2012,01,15,16,11,1.20
2012,01,15,16,12,1.20
2012,01,15,16,13,1.20
2012,01,15,16,14,1.20
2012,01,15,16,15,1.10
2012,01,15,16,16,1.10
2012,01,15,16,17,1.10
2012,01,15,16,18,1.10
2012,01,15,16,19,1.10
2012,01,15,16,20,1.10
2012,01,15,16,21,1.10
2012,01,15,16,22,1.10
2012,01,15,16,23,1.10
2012,01,15,16,24,1.00
2012,01,15,16,25,1.00
2012,01,15,16,26,1.00
2012,01,15,16,27,0.90
2012,01,15,16,28,0.90
2012,01,15,16,29,0.90
2012,01,15,16,30,0.90
2012,01,15,16,31,0.80
2012,01,15,16,32,0.80
2012,01,15,16,33,0.80
2012,01,15,16,34,0.80
2012,01,15,16,35,0.80
2012,01,15,16,36,0.70
2012,01,15,16,37,0.70
2012,01,15,16,38,0.70
2012,01,15,16,39,0.70
2012,01,15,16,40,0.70
2012,01,15,16,41,0.70
2012,01,15,16,42,0.60
2012,01,15,16,43,0.60
2012,01,15,16,44,0.60
2012,01,15,16,45,0.70
2012,01,15,16,46,0.70
2012,01,15,16,47,0.60
2012,01,15,16,48,0.60
2012,01,15,16,49,0.60
2012,01,15,16,50,0.60
2012,01,15,16,51,0.60
2012,01,15,16,52,0.60
2012,01,15,16,53,0.60
2012,01,15,16,54,0.50
2012,01,15,16,55,0.50
2012,01,15,16,56,0.50
2012,01,15,16,57,0.50
2012,01,15,16,58,0.50
2012,01,15,16,59,0.40
2012,01,15,17,00,0.40
2012,01,15,17,01,0.40
2012,01,15,17,02,0.40
2012,01,15,17,03,0.30
2012,01,15,17,04,0.30
2012,01,15,17,05,0.30
2012,01,15,17,06,0.30
2012,01,15,17,07,0.30
2012,01,15,17,08,0.20
2012,01,15,17,09,0.20
2012,01,15,17,10,0.10
2012,01,15,17,11,0.10
2012,01,15,17,12,0.10
2012,01,15,17,13,0.10
2012,01,15,17,14,0.00
2012,01,15,17,15,0.00
2012,01,15,17,16,0.00
2012,01,15,17,17,0.00
2012,01,15,17,18,0.00
2012,01,15,17,19,0.00
2012,01,15,17,20,0.00
2012,01,15,17,21,0.00
2012,01,15,17,22,0.00
2012,01,15,17,23,0.00
2012,01,15,17,24,0.00
2012,01,15,17,25,0.10
2012,01,15,17,26,0.10
2012,01,15,17,27,0.10
2012,01,15,17,28,0.10
2012,01,15,17,29,0.10
2012,01,15,17,30,0.10
2012,01,15,17,31,0.10
2012,01,15,17,32,0.20
2012,01,15,17,33,0.20
2012,01,15,17,34,0.20
2012,01,15,17,35,0.20
2012,01,15,17,36,0.20
2012,01,15,17,37,0.10
2012,01,15,17,38,0.10
2012,01,15,17,39,0.10